Probability
0 0 0 0 0 0 0 0 0 0 0 0 0 0 0 0 0 0 0 0 0 0 0 0 0 0 0 0 0 0 0 0 0 0 0 0 0 0 0 0 0 0 0 0
0 0 0 0 0 0 0 0 0 0 0 0 0 0 0 0 0 0 0 0 0 0 0 0 0 0 0 0 0 0 0 0 0 0 0 0 0 0 0 0 0 0 0 0
0 0 0 0 0 0 0 0 0 0 0 0 0 0 0 0 0 0 0 0 0 0 0 0 0 0 0 0 0 0 0 0 0 0 0 0 0 0 0 0 0 0 0 0
0 0 0 0 0 0 0 0 0 0 0 0 0 0 0 0 0 0 0 0 0 0 0 0 0 0 0 0 0 0 0 0 0 0 0 0 0 0 0 0 0 0 0 0
0 0 0 0 0 0 0 0 0 0 0 0 0 0 0 0 0 0 0 0 0 0 0 0 0 0 0 0 0 0 0 0 0 0 0 0 0 0 0 0 0 0 0 0
0 0 0 0 0 0 0 0 0 0 0 0 0 0 0 0 0 0 0 0 0 0 0 0 0 0 0 0 0 0 0 0 0 0 0 0 0 0 0 0 0 0 0 0
0 0 0 0 0 0 0 0 0 0 0 0 0 0 0 0 0 0 0 0 0 0 0 0 0 0 0 0 0 0 0 0 0 0 0 0 0 0 0 0 0 0 0 0
0 0 0 0 0 0 0 0 0 0 0 0 0 0 0 0 0 0 0 0 0 0 0 0 0 0 0 0 0 0 0 0 0 0 0 0 0 0 0 0 0 0 0 0
0 0 0 0 0 0 0 0 0 0 0 0 0 0 0 0 0 0 0 0 0 0 0 0 0 0 0 0 0 0 0 0 0 0 0 0 0 0 0 0 0 0 0 0
0 0 0 0 0 0 0 0 0 0 0 0 0 0 0 0 0 0 0 0 0 0 0 0 0 0 0 0 0 0 0 0 0 0 0 0 0 0 0 0 0 0 0 0
0 0 0 0 0 0 0 0 0 0 0 0 0 0 0 0 0 0 0 0 0 0 0 0 0 0 0 0 0 0 0 0 0 0 0 0 0 0 0 0 0 0 0 0
0 0 0 0 0 0 0 0 0 0 0 0 0 0 0 0 0 0 0 0 0 0 0 0 0 0 0 0 0 0 0 0 0 0 0 0 0 0 0 0 0 0 0 0
0 0 0 0 0 0 0 0 0 0 0 0 0 0 0 0 0 0 0 0 0 0 0 0 0 0 0 0 0 0 0 0 0 0 0 0 0 0 0 0 0 0 0 0
0 0 0 0 0 0 0 0 0 0 0 0 0 0 0 0 0 0 0 0 0 0 0 0 0 0 0 0 0 0 0 0 0 0 0 0 0 0 0 0 0 0 0 0
0 0 0 0 0 0 0 0 0 0 0 0 0 0 0 0 0 0 0 0 0 0 0 0 0 0 0 0 0 0 0 0 0 0 0 0 0 0 0 0 0 0 0 0
0 0 0 0 0 0 0 0 0 0 0 0 0 0 0 0 0 0 0 0 0 0 0 0 0 0 0 0 0 0 0 0 0 0 0 0 0 0 0 0 0 0 0 0
0 0 0 0 0 0 0 0 0 0 0 0 0 0 0 0 0 0 0 0 0 0 0 0 0 0 0 0 0 0 0 0 0 0 0 0 0 0 0 0 0 0 0 0
0 0 0 0 0 0 0 0 0 0 0 0 0 0 0 0 0 0 0 0 0 0 0 0 0 0 0 0 0 0 0 0 0 0 0 0 0 0 0 0 0 0 0 0
0 0 0 0 0 0 0 0 0 0 0 0 0 0 0 0 0 0 0 0 0 0 0 0 0 0 0 0 0 0 0 0 0 0 0 0 0 0 0 0 0 0 0 0
0 0 0 0 0 0 0 0 0 0 0 0 0 0 0 0 0 0 0 0 0 0 0 0 0 0 0 0 0 0 0 0 0 0 0 0 0 0 0 0 0 0 0 0
0 0 0 0 0 0 0 0 0 0 0 0 0 0 0 0 0 0 0 0 0 0 0 0 0 0 0 0 0 0 0 0 0 0 0 0 0 0 0 0 0 0 0 0
0 0 0 0 0 0 0 0 0 0 0 0 0 0 0 0 0 0 0 0 0 0 0 0 0 0 0 0 0 0 0 0 0 0 0 0 0 0 0 0 0 0 0 0
0 0 0 0 0 0 0 0 0 0 0 0 0 0 0 0 0 0 0 0 0 0 0 0 0 0 0 0 0 0 0 0 0 0 0 0 0 0 0 0 0 0 0 0
0 0 0 0 0 0 0 0 0 0 0 0 0 0 0 0 0 0 0 0 0 0 0 0 0 0 0 0 0 0 0 0 0 0 0 0 0 0 0 0 0 0 0 0
0 0 0 0 0 0 0 0 0 0 0 0 0 0 0 0 0 0 0 0 0 0 0 0 0 0 0 0 0 0 0 0 0 0 0 0 0 0 0 0 0 0 0 0
0 0 0 0 0 0 0 0 0 0 0 0 0 0 0 0 0 0 0 0 0 0 0 0 0 0 0 0 0 0 0 0 0 0 0 0 0 0 0 0 0 0 0 0
Wind_Speed
4 3 5 4 3 3 1 3 5 2 3 7 12 15 12 12 16 17 16 16 16 15 12 11 10 8 5 2 3 5 7 8 7 6 7 8 8 7 7 7 11 12 13 14
3 5 3 1 1 2 2 5 4 1 2 6 11 16 12 11 16 16 17 17 16 15 13 13 12 9 6 2 2 5 7 8 8 7 7 7 9 7 7 7 9 11 13 13
4 5 2 2 2 2 3 4 5 6 1 4 9 8 3 3 8 13 15 16 15 15 15 14 13 10 6 2 2 4 6 7 7 8 6 7 7 7 6 9 8 11 12 13
6 3 2 2 1 3 2 1 4 5 6 3 4 6 2 2 5 10 14 16 16 14 14 14 12 10 6 3 0 3 5 6 7 8 8 10 9 9 10 9 9 12 12 12
5 2 2 2 1 2 2 1 3 3 4 5 2 6 2 2 3 4 9 14 14 13 13 13 12 9 6 4 1 3 5 6 7 8 9 10 9 8 8 10 11 11 11 12
4 2 1 1 1 0 1 3 3 4 4 3 2 5 5 2 1 2 2 6 11 12 12 12 11 9 6 5 2 2 4 5 7 8 9 9 11 11 12 12 11 11 10 10
4 3 2 1 2 3 3 5 4 3 3 3 2 6 8 1 4 6 6 4 7 11 13 13 12 10 7 5 3 2 4 6 7 8 8 9 10 11 12 12 11 12 10 11
4 4 3 1 1 1 1 4 5 5 6 6 2 7 5 1 3 5 6 5 6 12 13 13 12 9 7 5 3 2 4 6 7 8 8 8 9 8 8 11 11 11 10 11
4 3 3 1 1 2 2 2 2 4 3 7 6 6 8 4 7 8 8 7 9 12 14 13 11 9 7 5 3 1 3 5 6 7 8 8 9 9 10 11 10 9 10 11
3 3 4 3 3 3 3 4 4 3 5 7 8 7 5 5 5 6 9 11 11 13 14 13 11 10 7 6 4 2 2 5 6 7 7 7 9 9 10 10 11 11 12 13
3 4 4 5 6 5 6 4 3 2 3 5 7 7 4 8 7 7 8 9 11 15 15 13 11 9 7 6 5 2 1 4 6 6 7 8 8 9 10 9 10 11 12 13
2 4 4 3 2 2 4 5 6 5 4 5 6 10 3 7 7 8 9 7 10 13 14 13 11 10 8 7 6 4 2 4 5 6 7 7 8 9 9 10 10 11 12 12
4 5 5 4 5 4 6 6 6 3 3 6 7 10 3 5 8 9 10 8 9 13 14 13 11 10 9 7 6 4 3 4 5 6 7 7 8 9 10 10 10 11 11 12
4 6 8 6 1 7 8 9 10 9 7 8 14 17 15 12 11 9 10 10 10 14 15 14 12 11 9 8 7 5 4 4 4 5 6 7 8 9 10 10 10 10 11 11
4 6 6 8 3 3 7 11 14 15 13 12 13 13 18 17 14 10 7 8 11 14 16 16 14 11 10 9 7 6 5 4 4 5 6 7 8 9 9 10 10 10 10 11
5 6 3 6 3 5 9 15 17 17 15 18 20 21 21 18 11 8 8 10 14 16 17 16 14 12 11 10 8 7 5 4 4 5 5 6 7 8 9 10 10 10 10 11
7 6 5 4 3 5 13 14 19 13 15 14 16 17 10 7 9 10 10 12 15 16 17 17 15 13 12 11 9 8 6 5 5 5 5 6 7 8 9 10 10 10 10 11
7 5 3 4 3 10 6 3 12 12 12 17 17 15 13 11 9 9 11 12 14 15 16 16 14 13 11 10 9 7 6 6 5 5 5 6 6 8 10 10 10 10 10 10
4 4 4 3 5 11 7 7 10 11 11 15 20 20 17 2 7 10 12 14 13 14 15 14 14 13 12 11 10 8 7 6 6 6 6 6 6 8 9 10 10 10 10 10
2 3 4 4 6 10 6 6 6 5 9 8 14 17 10 3 6 6 5 10 11 11 12 12 13 13 12 11 10 9 8 7 7 6 6 6 7 8 10 11 11 10 10 10
6 6 8 8 9 13 2 7 9 6 6 4 11 12 9 11 10 0 5 8 11 12 13 13 14 13 12 12 11 10 9 8 7 6 6 7 7 8 9 10 10 10 10 11
13 11 11 9 9 14 8 12 13 8 1 3 7 9 10 13 8 4 7 9 12 13 14 15 13 12 11 12 12 11 10 8 6 6 7 7 8 7 7 10 10 10 10 10
13 13 10 14 12 4 13 13 9 4 5 6 6 8 10 11 11 10 10 12 13 15 15 14 13 13 12 12 12 11 9 7 7 6 7 7 7 7 7 8 10 9 8 8
10 6 7 10 16 11 12 16 14 12 13 14 11 9 9 13 12 12 11 13 14 15 16 15 15 14 13 13 13 11 8 8 7 7 6 6 7 7 7 6 7 7 7 8
10 11 9 12 11 9 13 18 21 19 18 19 17 15 15 14 14 14 13 15 15 15 15 15 15 15 15 14 13 12 10 9 8 7 6 6 6 6 6 6 6 7 7 8
10 13 13 14 10 11 10 6 9 13 17 17 15 15 14 16 15 14 14 14 15 16 16 16 16 15 14 14 14 13 12 11 9 7 6 4 4 4 5 6 6 6 7 11
Wind_Direction
18 86 76 64 24 13 325 280 294 343 134 235 254 264 254 204 210 221 220 218 220 220 210 191 188 185 190 203 338 347 345 348 346 342 339 335 333 330 329 332 333 332 332 331
138 83 58 45 152 198 237 278 293 257 155 260 291 282 269 225 216 222 227 225 224 221 204 193 191 191 198 213 333 338 347 345 349 344 333 326 320 317 320 327 331 333 331 328
86 87 92 157 153 236 252 286 312 313 297 227 296 280 169 177 226 231 236 237 231 222 209 196 193 193 194 205 341 343 341 338 347 344 333 327 321 320 332 335 332 331 327 324
93 107 161 163 119 312 300 349 294 291 291 309 336 312 134 161 232 230 230 230 229 221 212 196 190 188 186 169 136 327 331 336 350 347 340 336 331 331 335 333 326 325 323 321
113 117 165 192 115 293 345 355 272 261 269 273 220 287 300 141 252 231 229 227 225 216 204 190 183 175 164 158 193 320 322 339 353 349 341 333 330 330 327 328 325 326 323 322
98 108 21 76 125 243 206 202 177 201 239 262 86 296 291 171 236 253 227 231 219 206 192 180 168 162 164 168 194 297 317 347 354 345 338 334 332 332 328 331 328 328 324 323
147 153 125 191 196 169 236 288 296 286 279 348 90 267 266 306 254 265 270 260 213 193 183 174 171 174 179 185 200 273 323 352 351 340 334 332 331 329 328 329 327 326 324 325
197 176 153 179 298 339 52 321 348 321 320 321 214 259 276 229 252 259 262 263 208 190 185 181 178 178 180 182 201 264 344 352 342 332 330 326 329 327 323 324 322 321 321 322
218 160 111 74 44 290 167 123 8 281 279 279 270 269 284 207 247 240 239 230 207 193 188 184 178 179 180 180 193 269 351 341 331 324 323 322 330 327 322 321 320 319 320 320
257 188 155 138 149 61 353 136 176 240 298 294 290 273 266 270 269 230 230 228 212 194 189 184 180 181 178 177 186 197 339 327 318 315 320 320 324 324 320 318 321 322 322 322
246 225 163 192 212 191 162 167 182 183 264 276 296 288 206 261 283 271 258 232 208 194 190 185 181 178 174 179 190 196 287 306 308 314 316 320 323 322 319 318 322 323 323 325
206 251 216 181 96 347 238 208 194 229 210 230 269 274 207 243 260 257 261 247 209 195 188 183 179 177 181 190 192 198 249 288 304 308 311 317 320 320 319 321 323 324 325 327
179 223 220 185 180 193 214 202 203 203 208 214 238 261 156 233 249 248 252 245 204 189 185 182 181 184 189 193 193 197 231 274 295 300 306 313 319 321 320 321 323 326 327 327
205 244 249 267 183 170 195 192 188 188 210 222 232 262 280 278 277 271 252 236 203 189 187 187 188 189 190 193 193 197 223 257 282 293 301 311 320 321 318 318 321 325 326 327
207 252 253 272 269 236 237 211 194 208 222 236 250 256 271 284 299 298 274 219 197 192 193 193 193 189 188 190 192 196 217 241 266 283 297 311 317 316 313 314 318 322 325 325
206 244 257 267 237 228 255 237 218 225 235 245 260 271 267 277 283 263 241 210 203 200 198 196 194 189 189 190 189 193 209 226 253 271 285 299 308 308 307 308 315 319 322 323
187 206 225 256 174 275 262 228 197 204 215 212 227 242 258 252 250 254 243 214 212 204 197 195 193 190 187 184 182 190 201 211 238 258 275 289 299 303 305 307 311 316 317 319
181 195 237 274 255 243 251 118 182 205 228 219 238 257 263 268 289 275 249 227 215 203 196 193 188 182 176 172 175 183 192 211 233 251 265 278 290 296 302 306 310 313 314 315
233 213 228 240 252 271 262 184 178 199 256 220 227 249 263 335 305 267 227 220 215 199 191 186 179 171 167 170 174 182 197 210 227 243 256 271 281 288 297 302 307 312 312 309
134 219 233 215 234 247 256 138 158 161 271 225 209 236 243 167 275 297 158 194 198 187 178 170 164 162 167 170 173 188 201 210 224 236 252 268 278 285 293 300 308 312 311 308
173 194 213 221 242 264 272 132 152 192 254 187 200 222 198 205 235 292 156 181 183 176 169 164 163 168 171 168 176 195 204 213 219 232 253 266 276 286 295 299 304 307 309 311
179 179 197 188 213 252 157 157 199 229 340 204 212 218 214 228 234 200 193 183 179 175 171 169 170 172 169 172 183 198 208 207 206 227 252 264 275 284 289 298 303 307 311 312
206 199 193 195 215 269 171 207 230 288 260 238 226 226 220 233 231 213 203 193 187 182 176 175 175 173 174 180 191 203 201 192 199 223 247 264 275 281 286 296 303 308 314 316
216 210 206 232 253 246 222 240 250 244 247 257 250 239 218 228 231 213 201 193 189 187 181 178 179 181 183 186 196 205 191 184 199 222 244 261 273 284 292 297 299 307 314 316
203 178 211 239 257 288 256 234 241 248 251 256 255 244 235 232 230 211 201 196 191 187 183 182 187 190 188 185 194 197 192 189 201 218 237 255 266 279 291 298 303 306 307 315
188 188 198 237 218 219 247 219 219 234 245 246 245 248 234 224 227 209 204 197 190 187 184 186 191 192 188 186 191 192 191 192 198 210 226 241 262 278 292 303 305 299 305 323